Regional Weather Roundup
Issued by NWS

Home | Current Version | Previous Version | Text Only | Print | Product List | Glossary On
Versions: 1 2 3 4 5 6 7 8 9 10 11 12 13 14 15 16 17 18 19 20 21 22 23 24 25 26 27 28 29 30 31 32 33 34 35 36 37 38 39 40 41 42 43 44 45 46 47 48 49 50
000
ASUS43 KTOP 280408
RWRKS

WEATHER ROUNDUP FOR KANSAS
NATIONAL WEATHER SERVICE GOODLAND KS
1100 PM CDT MON JUL 27 2015

NOTE:  "FAIR" INDICATES FEW OR NO CLOUDS BELOW 12,000 FEET WITH NO
SIGNIFICANT WEATHER AND/OR OBSTRUCTIONS TO VISIBILITY.

KSZ001>006-013>018-027>032-041>047-280500-
NORTHWEST KANSAS

CITY           SKY/WX    TMP DP  RH WIND       PRES   REMARKS
GOODLAND       PTCLDY    79  67  66 S14       29.81R
HAYS           PTCLDY    82  64  54 S16       29.81R
HILL CITY      CLEAR     85  69  58 S17G25    29.77R
RUSSELL        CLEAR     84  69  60 S17G28    29.80R
$$

KSZ061>065-074>080-084>089-280500-
SOUTHWEST KANSAS

CITY           SKY/WX    TMP DP  RH WIND       PRES   REMARKS
DODGE CITY     CLEAR     83  65  54 S17G24    29.86R
ELKHART          N/A     81  62  52 S13         N/A
GARDEN CITY    CLEAR     81  69  67 S13       29.84R
GREAT BEND     PTCLDY    84  70  61 S20       29.82S
LIBERAL        CLEAR     82  63  51 S10       29.87R
PRATT          CLEAR     82  68  61 S16G22    29.87S
$$

KSZ066>073-081>083-090>101-280500-
SOUTHEAST KANSAS

CITY           SKY/WX    TMP DP  RH WIND       PRES   REMARKS
CHANUTE        CLEAR     82  75  79 S8        29.91R
COFFEYVILLE    CLEAR     82  76  81 S6        29.91R
HUTCHINSON     CLEAR     86  66  51 S17       29.86R
MEDICINE LODGE   N/A     85  69  58 S10G18    29.86R
NEWTON         CLEAR     82  70  65 S10G17    29.91R
PARSONS        CLEAR     83  76  79 S5        29.92R
WICHITA INTL   PTCLDY    85  67  54 S15       29.87R
WICHITA JABRA  CLEAR     83  73  72 S12       29.88R
WICHITA MCCONL CLEAR     84  71  65 SE10      29.88R
WINFIELD       CLEAR     82  74  76 S12       29.90R
$$

KSZ007>012-019>026-033>040-048>060-102>105-280500-
NORTHEAST KANSAS

CITY           SKY/WX    TMP DP  RH WIND       PRES   REMARKS
CONCORDIA      CLEAR     82  67  60 S14       29.83R
EMPORIA        CLEAR     81  72  74 SE9       29.89R
LAWRENCE       CLEAR     78  74  87 SE6       29.89R
MANHATTAN      CLEAR     81  71  71 S5        29.85R
MARYSVILLE     CLEAR     81  72  74 SE8       29.85R
OLATHE IND     CLEAR     81  74  79 SE7       29.92R
OLATHE EXE     CLEAR     81  74  79 SE5       29.91R
SALINA         CLEAR     85  69  58 SE10      29.83R
TOPEKA BILLARD CLEAR     83  73  72 SE7       29.88R
TOPEKA FORBES  CLEAR     83  72  69 SE7       29.89R
$$



USA.gov is the U.S. government's official web portal to all federal, state and local government web resources and services.